HST,Max TemperatureF,Mean TemperatureF,Min TemperatureF,Max Dew PointF,MeanDew PointF,Min DewpointF,Max Humidity, Mean Humidity, Min Humidity, Max Sea Level PressureIn, Mean Sea Level PressureIn, Min Sea Level PressureIn, Max VisibilityMiles, Mean VisibilityMiles, Min VisibilityMiles, Max Wind SpeedMPH, Mean Wind SpeedMPH, Max Gust SpeedMPH,PrecipitationIn, CloudCover, Events, WindDirDegrees
2013-4-1,75,65,55,58,54,52,87,67,48,30.06,30.02,29.97,10,10,10,23,4,29,0.00,4,,322
2013-4-2,75,66,57,57,54,52,87,65,45,30.13,30.07,30.03,10,10,10,9,3,,0.00,3,,60
2013-4-3,77,67,57,61,58,55,90,69,50,30.12,30.08,30.04,10,10,10,12,3,17,0.00,2,,119
2013-4-4,79,69,59,66,62,57,93,73,58,30.13,30.08,30.04,10,10,10,13,4,,0.00,2,,202
2013-4-5,80,72,63,67,63,59,87,75,62,30.17,30.11,30.06,10,9,7,13,3,18,0.00,0,,111
2013-4-6,81,74,66,71,67,63,87,76,65,30.20,30.15,30.10,10,10,10,12,4,18,0.00,2,,116
2013-4-7,82,73,64,69,65,63,93,76,56,30.21,30.16,30.10,10,10,9,9,2,,0.00,3,,111
2013-4-8,81,74,66,68,64,62,87,73,54,30.15,30.09,30.01,10,10,10,13,3,20,0.00,3,,118
2013-4-9,81,74,66,68,64,62,87,71,54,30.12,30.06,30.01,10,10,10,13,3,18,0.00,2,,114
2013-4-10,81,74,68,69,64,61,84,72,52,30.11,30.07,30.01,10,10,10,12,4,18,0.00,2,,91
2013-4-11,82,74,66,70,67,63,90,76,54,30.08,30.03,29.99,10,10,10,13,3,,0.00,3,,123
2013-4-12,82,76,71,70,68,66,87,77,65,30.03,29.98,29.93,10,10,9,14,4,,0.00,4,,137
2013-4-13,80,75,70,71,69,66,93,82,71,30.01,29.95,29.91,10,9,5,13,5,18,0.02,3,Rain,146
2013-4-14,80,74,68,72,69,64,100,88,71,30.01,29.94,29.90,10,7,1,20,10,24,0.63,7,Rain,210
2013-4-15,75,70,66,70,68,67,100,94,74,30.09,30.03,29.96,10,9,2,12,2,,0.03,7,Rain,121
2013-4-16,78,70,63,72,67,63,100,90,74,30.15,30.09,30.03,10,10,10,9,2,,0.00,1,,162
2013-4-17,80,72,64,70,65,63,100,80,62,30.20,30.14,30.08,10,10,10,14,3,21,0.01,2,,99
2013-4-18,82,73,64,68,64,63,93,75,54,30.18,30.15,30.11,10,10,8,13,5,22,0.00,3,Rain,68
2013-4-19,80,73,66,70,66,63,94,78,66,30.15,30.11,30.06,10,10,10,12,4,22,0.00,4,,99
2013-4-20,80,72,64,68,66,63,97,78,64,30.12,30.08,30.03,10,10,10,10,3,,0.00,2,Rain,181
2013-4-21,79,72,64,70,68,64,100,91,71,30.09,30.04,30.00,10,8,1,12,3,22,0.42,4,Rain,142
2013-4-22,80,73,66,72,69,66,100,92,74,30.08,30.03,29.97,10,7,1,13,3,,0.83,5,Rain,195
2013-4-23,79,74,69,71,69,67,100,86,71,30.11,30.05,30.00,10,10,6,16,9,16,0.01,5,Rain,191
2013-4-24,78,72,66,71,68,66,100,94,68,30.14,30.07,30.03,10,7,1,10,4,,0.79,7,Rain,92
2013-4-25,80,73,66,69,65,62,100,79,60,30.11,30.07,30.03,10,10,9,10,4,18,0.01,1,,79
2013-4-26,80,72,64,64,63,61,100,77,52,30.09,30.06,30.01,10,10,10,12,3,20,0.00,2,,83
2013-4-27,79,70,62,67,65,62,100,81,64,30.09,30.05,30.01,10,10,10,14,4,,0.00,1,,158
2013-4-28,79,72,64,70,67,64,100,87,69,30.06,30.03,29.98,10,10,10,10,4,,0.00,1,,150
2013-4-29,80,74,69,71,70,68,100,84,74,30.02,29.99,29.95,10,10,10,14,10,,0.00,2,,168
2013-4-30,77,72,66,71,68,66,100,91,79,30.07,30.02,29.96,10,10,10,10,2,,0.01,6,,142